Location: Howard City Library
(37.4684°N, 96.2639°W)
Time: 10:14:50
(UTC+00:00)

STARLINK-1078 - Pass Details

Date: 18 February 2020
Orbit: 548 x 551 km, 53.0° (Epoch: 09 April)

Event Time Altitude Azimuth Distance (km) Brightness Sun altitude
Exits shadow 11:50:29 22° 321° (NW) 1,244 5.0 -16.7°
Maximum altitude 11:51:00 22° 332° (NNW) 1,225 5.1 -16.6°
Drops below altitude 10° 11:54:18 10° 24° (NNE) 1,829 6.5 -15.9°
Sets 11:56:56 0° 40° (NE) 2,726 7.7 -15.4°
